Iridium Next SV110

operational
NORAD ID: 43481 Int'l Des: 2018-047 Owner: IRIDS Country: US Constellation: Iridium NEXT
LEOCIRCULARPOLAR

About Iridium Next SV110

Description loading...

Live Position

Loading 3D Globe...

Upcoming Passes

Altitude History

Altitude vs Time

uPlot chart will show altitude changes over time

Two-Line Element Set

1 43481U 18047F 26062.62451785 .00000065 00000-0 15976-4 0 9997
2 43481 86.3988 132.5693 0002549 89.9663 270.1825 14.34217900407348
Epoch: Mar 3, 2026 • Age: 23 hours

Current Status

Altitude 780.2 km
Velocity 7.46 km/s
Sub-Earth Point 3.34°N, 19.75°W
Launch Date May 22, 2018
Age 7.7 years
Type communications

Technical Details

Classification Payload
Mass 860.00 kg
Dry Mass 700.00 kg
Total Mass 860.00 kg
Length 3.10 m
Diameter 1.50 m
Span 9.40 m
Shape Half Hex Prism+2 pan
Manufacturer OATKGA
Bus Type EliteBus
Phase Status In Orbit
Owner/State IRIDS/US

Large Constellations

Loading constellations...